Time,TemperatureF,DewpointF,PressureIn,WindDirection,WindDirectionDegrees,WindSpeedMPH,WindSpeedGustMPH,Humidity,HourlyPrecipIn,Conditions,Clouds,dailyrainin,SoftwareType,DateUTC
2013-08-12 07:24:00,85.0,0.0,29.99,NW,306,7.0,15.0,22,-99.99,,,-99.99,,2013-08-12 14:24:00,
2013-08-12 07:52:00,80.0,0.0,29.95,NW,304,6.0,10.0,24,-99.99,,,-99.99,,2013-08-12 14:52:00,
2013-08-12 08:00:00,80.0,0.0,29.95,NW,313,6.0,10.0,27,-99.99,,,-99.99,,2013-08-12 15:00:00,
2013-08-12 08:08:00,81.0,0.0,29.95,NW,308,6.0,10.0,24,-99.99,,,-99.99,,2013-08-12 15:08:00,
2013-08-12 08:16:00,82.0,0.0,29.96,NW,307,8.0,9.0,22,-99.99,,,-99.99,,2013-08-12 15:16:00,
2013-08-12 08:24:00,83.0,0.0,29.96,West,263,3.0,9.0,21,-99.99,,,-99.99,,2013-08-12 15:24:00,
2013-08-12 08:32:00,84.0,0.0,29.96,WNW,303,7.0,9.0,24,-99.99,,,-99.99,,2013-08-12 15:32:00,
2013-08-12 08:40:00,84.0,0.0,29.96,NW,307,5.0,8.0,22,-99.99,,,-99.99,,2013-08-12 15:40:00,
2013-08-12 08:44:00,85.0,0.0,29.96,WNW,301,6.0,8.0,20,-99.99,,,-99.99,,2013-08-12 15:44:00,
2013-08-12 08:52:00,84.0,0.0,29.96,WNW,301,2.0,8.0,20,-99.99,,,-99.99,,2013-08-12 15:52:00,
2013-08-12 09:00:00,86.0,0.0,29.96,NW,314,3.0,7.0,19,-99.99,,,-99.99,,2013-08-12 16:00:00,
2013-08-12 09:08:00,86.0,0.0,29.96,WNW,292,2.0,7.0,19,-99.99,,,-99.99,,2013-08-12 16:08:00,
2013-08-12 09:32:00,89.0,0.0,29.96,WNW,303,5.0,9.0,17,-99.99,,,-99.99,,2013-08-12 16:32:00,
2013-08-12 09:40:00,88.0,0.0,29.96,NW,305,0.0,9.0,20,-99.99,,,-99.99,,2013-08-12 16:40:00,
2013-08-12 09:48:00,90.0,0.0,29.96,WNW,299,6.0,7.0,17,-99.99,,,-99.99,,2013-08-12 16:48:00,
2013-08-12 09:56:00,88.0,0.0,29.96,WNW,300,3.0,9.0,17,-99.99,,,-99.99,,2013-08-12 16:56:00,
2013-08-12 10:04:00,89.0,0.0,29.97,NW,316,3.0,7.0,17,-99.99,,,-99.99,,2013-08-12 17:04:00,
2013-08-12 10:12:00,89.0,0.0,29.97,WNW,297,2.0,8.0,18,-99.99,,,-99.99,,2013-08-12 17:12:00,
2013-08-12 10:20:00,90.0,0.0,29.97,NW,314,3.0,8.0,19,-99.99,,,-99.99,,2013-08-12 17:20:00,
2013-08-12 10:28:00,91.0,0.0,29.97,NW,316,2.0,7.0,15,-99.99,,,-99.99,,2013-08-12 17:28:00,
2013-08-12 10:36:00,90.0,0.0,29.97,NW,304,6.0,10.0,17,-99.99,,,-99.99,,2013-08-12 17:36:00,
2013-08-12 10:44:00,93.0,0.0,29.97,NW,310,2.0,10.0,16,-99.99,,,-99.99,,2013-08-12 17:44:00,
2013-08-12 10:52:00,92.0,0.0,29.97,NW,304,1.0,9.0,14,-99.99,,,-99.99,,2013-08-12 17:52:00,
2013-08-12 11:00:00,94.0,0.0,29.97,NW,304,7.0,13.0,12,-99.99,,,-99.99,,2013-08-12 18:00:00,
2013-08-12 11:08:00,93.0,0.0,29.97,NW,306,6.0,13.0,14,-99.99,,,-99.99,,2013-08-12 18:08:00,
2013-08-12 11:16:00,93.0,0.0,29.96,NW,306,10.0,16.0,12,-99.99,,,-99.99,,2013-08-12 18:16:00,
2013-08-12 11:24:00,94.0,0.0,29.96,NW,308,7.0,14.0,12,-99.99,,,-99.99,,2013-08-12 18:24:00,
2013-08-12 11:32:00,95.0,0.0,29.96,NW,307,5.0,14.0,13,-99.99,,,-99.99,,2013-08-12 18:32:00,
2013-08-12 11:40:00,95.0,0.0,29.96,NW,318,1.0,10.0,12,-99.99,,,-99.99,,2013-08-12 18:40:00,
2013-08-12 11:48:00,96.0,0.0,29.96,WNW,297,5.0,9.0,13,-99.99,,,-99.99,,2013-08-12 18:48:00,
2013-08-12 11:56:00,96.0,0.0,29.96,WNW,300,6.0,13.0,16,-99.99,,,-99.99,,2013-08-12 18:56:00,
2013-08-12 12:04:00,96.0,0.0,29.95,NW,316,5.0,9.0,14,-99.99,,,-99.99,,2013-08-12 19:04:00,
2013-08-12 12:12:00,96.0,0.0,29.95,WNW,294,3.0,8.0,14,-99.99,,,-99.99,,2013-08-12 19:12:00,
2013-08-12 12:20:00,95.0,0.0,29.95,NW,305,5.0,7.0,13,-99.99,,,-99.99,,2013-08-12 19:20:00,
2013-08-12 12:28:00,98.0,0.0,29.95,NW,314,7.0,13.0,11,-99.99,,,-99.99,,2013-08-12 19:28:00,
2013-08-12 12:36:00,97.0,0.0,29.94,WNW,302,2.0,8.0,14,-99.99,,,-99.99,,2013-08-12 19:36:00,
2013-08-12 12:44:00,98.0,0.0,29.94,NW,323,2.0,8.0,15,-99.99,,,-99.99,,2013-08-12 19:44:00,
2013-08-12 12:52:00,94.0,0.0,29.94,SSE,154,3.0,7.0,14,-99.99,,,-99.99,,2013-08-12 19:52:00,
2013-08-12 13:00:00,95.0,0.0,29.94,South,191,2.0,9.0,12,-99.99,,,-99.99,,2013-08-12 20:00:00,
2013-08-12 13:08:00,97.0,0.0,29.93,WNW,303,6.0,7.0,13,-99.99,,,-99.99,,2013-08-12 20:08:00,
2013-08-12 13:16:00,99.0,0.0,29.93,WNW,295,7.0,9.0,13,-99.99,,,-99.99,,2013-08-12 20:16:00,
2013-08-12 13:24:00,99.0,0.0,29.92,WNW,300,10.0,18.0,12,-99.99,,,-99.99,,2013-08-12 20:24:00,
2013-08-12 13:32:00,99.0,0.0,29.92,NW,316,2.0,17.0,13,-99.99,,,-99.99,,2013-08-12 20:32:00,
2013-08-12 13:40:00,99.0,0.0,29.92,NW,304,0.0,14.0,10,-99.99,,,-99.99,,2013-08-12 20:40:00,
2013-08-12 13:48:00,99.0,0.0,29.92,NW,304,6.0,21.0,12,-99.99,,,-99.99,,2013-08-12 20:48:00,
2013-08-12 13:56:00,100.0,0.0,29.91,NW,311,13.0,17.0,11,-99.99,,,-99.99,,2013-08-12 20:56:00,
2013-08-12 14:04:00,100.0,0.0,29.91,NW,316,3.0,17.0,10,-99.99,,,-99.99,,2013-08-12 21:04:00,
2013-08-12 14:12:00,101.0,0.0,29.91,NW,312,7.0,14.0,13,-99.99,,,-99.99,,2013-08-12 21:12:00,
2013-08-12 14:20:00,100.0,0.0,29.90,NW,314,2.0,15.0,12,-99.99,,,-99.99,,2013-08-12 21:20:00,
2013-08-12 14:28:00,100.0,0.0,29.90,NW,308,7.0,20.0,11,-99.99,,,-99.99,,2013-08-12 21:28:00,
2013-08-12 14:36:00,100.0,0.0,29.90,WNW,300,9.0,17.0,9,-99.99,,,-99.99,,2013-08-12 21:36:00,
2013-08-12 14:44:00,100.0,0.0,29.90,NW,313,1.0,18.0,11,-99.99,,,-99.99,,2013-08-12 21:44:00,
2013-08-12 14:52:00,101.0,0.0,29.90,NW,309,8.0,13.0,13,-99.99,,,-99.99,,2013-08-12 21:52:00,
2013-08-12 15:00:00,101.0,0.0,29.89,West,276,7.0,14.0,10,-99.99,,,-99.99,,2013-08-12 22:00:00,
2013-08-12 15:08:00,101.0,0.0,29.89,NW,313,5.0,18.0,8,-99.99,,,-99.99,,2013-08-12 22:08:00,
2013-08-12 15:16:00,101.0,0.0,29.89,NW,313,9.0,15.0,8,-99.99,,,-99.99,,2013-08-12 22:16:00,
2013-08-12 15:24:00,100.0,0.0,29.89,WNW,292,14.0,17.0,8,-99.99,,,-99.99,,2013-08-12 22:24:00,
2013-08-12 15:32:00,100.0,0.0,29.89,NW,309,3.0,17.0,8,-99.99,,,-99.99,,2013-08-12 22:32:00,
2013-08-12 15:40:00,100.0,0.0,29.89,WNW,300,7.0,18.0,11,-99.99,,,-99.99,,2013-08-12 22:40:00,
2013-08-12 15:48:00,98.0,0.0,29.88,WNW,290,16.0,16.0,10,-99.99,,,-99.99,,2013-08-12 22:48:00,
2013-08-12 15:56:00,99.0,0.0,29.88,NW,305,2.0,12.0,11,-99.99,,,-99.99,,2013-08-12 22:56:00,
2013-08-12 16:04:00,98.0,0.0,29.88,WNW,300,2.0,17.0,8,-99.99,,,-99.99,,2013-08-12 23:04:00,
2013-08-12 16:12:00,98.0,0.0,29.88,WNW,299,10.0,12.0,11,-99.99,,,-99.99,,2013-08-12 23:12:00,
2013-08-12 16:20:00,99.0,0.0,29.87,WNW,296,16.0,18.0,10,-99.99,,,-99.99,,2013-08-12 23:20:00,
2013-08-12 16:28:00,98.0,0.0,29.87,NW,305,10.0,20.0,10,-99.99,,,-99.99,,2013-08-12 23:28:00,
2013-08-12 16:36:00,98.0,0.0,29.87,NW,312,7.0,14.0,10,-99.99,,,-99.99,,2013-08-12 23:36:00,
2013-08-12 16:44:00,98.0,0.0,29.87,WNW,303,7.0,16.0,10,-99.99,,,-99.99,,2013-08-12 23:44:00,
2013-08-12 16:52:00,98.0,0.0,29.87,NW,310,9.0,18.0,10,-99.99,,,-99.99,,2013-08-12 23:52:00,
2013-08-12 17:00:00,98.0,0.0,29.87,NW,305,6.0,15.0,9,-99.99,,,-99.99,,2013-08-13 00:00:00,
2013-08-12 17:05:00,97.0,0.0,29.87,WNW,294,5.0,10.0,10,-99.99,,,-99.99,,2013-08-13 00:05:00,
2013-08-12 17:12:00,97.0,0.0,29.87,NW,306,5.0,15.0,10,-99.99,,,-99.99,,2013-08-13 00:12:00,
2013-08-12 17:20:00,98.0,0.0,29.86,NW,306,7.0,17.0,9,-99.99,,,-99.99,,2013-08-13 00:20:00,
2013-08-12 17:28:00,97.0,0.0,29.86,NW,307,3.0,13.0,7,-99.99,,,-99.99,,2013-08-13 00:28:00,
2013-08-12 17:36:00,97.0,0.0,29.86,WNW,296,14.0,15.0,7,-99.99,,,-99.99,,2013-08-13 00:36:00,
2013-08-12 17:44:00,97.0,0.0,29.86,WNW,301,5.0,17.0,8,-99.99,,,-99.99,,2013-08-13 00:44:00,
2013-08-12 17:52:00,97.0,0.0,29.86,WNW,293,9.0,14.0,8,-99.99,,,-99.99,,2013-08-13 00:52:00,
2013-08-12 18:00:00,96.0,0.0,29.86,WNW,298,7.0,16.0,11,-99.99,,,-99.99,,2013-08-13 01:00:00,
2013-08-12 18:08:00,96.0,0.0,29.86,NW,305,2.0,16.0,9,-99.99,,,-99.99,,2013-08-13 01:08:00,
2013-08-12 18:16:00,96.0,0.0,29.86,WNW,293,10.0,16.0,8,-99.99,,,-99.99,,2013-08-13 01:16:00,
2013-08-12 18:24:00,96.0,0.0,29.85,NW,307,9.0,15.0,9,-99.99,,,-99.99,,2013-08-13 01:24:00,
2013-08-12 18:32:00,96.0,0.0,29.85,WNW,300,9.0,14.0,9,-99.99,,,-99.99,,2013-08-13 01:32:00,
2013-08-12 18:40:00,96.0,0.0,29.85,WNW,293,12.0,14.0,10,-99.99,,,-99.99,,2013-08-13 01:40:00,
2013-08-12 18:48:00,96.0,0.0,29.85,WNW,301,10.0,15.0,7,-99.99,,,-99.99,,2013-08-13 01:48:00,
2013-08-12 18:56:00,95.0,0.0,29.85,WNW,297,9.0,15.0,9,-99.99,,,-99.99,,2013-08-13 01:56:00,
2013-08-12 19:04:00,95.0,0.0,29.85,WNW,299,10.0,14.0,12,-99.99,,,-99.99,,2013-08-13 02:04:00,
2013-08-12 19:12:00,95.0,0.0,29.85,WNW,302,9.0,14.0,9,-99.99,,,-99.99,,2013-08-13 02:12:00,
2013-08-12 19:20:00,94.0,0.0,29.85,WNW,298,8.0,14.0,10,-99.99,,,-99.99,,2013-08-13 02:20:00,
2013-08-12 19:28:00,94.0,0.0,29.85,WNW,295,9.0,13.0,9,-99.99,,,-99.99,,2013-08-13 02:28:00,
2013-08-12 19:36:00,93.0,0.0,29.85,WNW,297,9.0,13.0,9,-99.99,,,-99.99,,2013-08-13 02:36:00,
2013-08-12 19:44:00,92.0,0.0,29.86,WNW,302,7.0,10.0,10,-99.99,,,-99.99,,2013-08-13 02:44:00,
2013-08-12 19:52:00,91.0,0.0,29.86,WNW,300,8.0,9.0,10,-99.99,,,-99.99,,2013-08-13 02:52:00,
2013-08-12 20:00:00,90.0,0.0,29.86,NW,308,7.0,8.0,10,-99.99,,,-99.99,,2013-08-13 03:00:00,
2013-08-12 20:08:00,90.0,0.0,29.87,WNW,301,7.0,9.0,12,-99.99,,,-99.99,,2013-08-13 03:08:00,
2013-08-12 20:16:00,89.0,0.0,29.87,NW,308,6.0,8.0,12,-99.99,,,-99.99,,2013-08-13 03:16:00,
2013-08-12 20:24:00,89.0,0.0,29.87,NW,305,7.0,8.0,13,-99.99,,,-99.99,,2013-08-13 03:24:00,
2013-08-12 20:32:00,88.0,0.0,29.88,NW,310,7.0,9.0,11,-99.99,,,-99.99,,2013-08-13 03:32:00,
2013-08-12 20:40:00,87.0,0.0,29.88,NW,305,9.0,12.0,12,-99.99,,,-99.99,,2013-08-13 03:40:00,
2013-08-12 20:48:00,86.0,0.0,29.88,WNW,299,12.0,12.0,12,-99.99,,,-99.99,,2013-08-13 03:48:00,
2013-08-12 20:56:00,86.0,0.0,29.89,WNW,302,9.0,14.0,16,-99.99,,,-99.99,,2013-08-13 03:56:00,
2013-08-12 21:04:00,86.0,0.0,29.89,WNW,302,8.0,13.0,16,-99.99,,,-99.99,,2013-08-13 04:04:00,
2013-08-12 21:08:00,86.0,0.0,29.89,NW,306,8.0,13.0,18,-99.99,,,-99.99,,2013-08-13 04:08:00,
2013-08-12 21:12:00,86.0,0.0,29.89,NW,311,8.0,13.0,16,-99.99,,,-99.99,,2013-08-13 04:12:00,
2013-08-12 21:20:00,85.0,0.0,29.90,NW,307,10.0,12.0,16,-99.99,,,-99.99,,2013-08-13 04:20:00,
2013-08-12 21:28:00,86.0,0.0,29.90,WNW,303,8.0,12.0,16,-99.99,,,-99.99,,2013-08-13 04:28:00,
2013-08-12 21:36:00,86.0,0.0,29.90,NW,308,7.0,12.0,19,-99.99,,,-99.99,,2013-08-13 04:36:00,
2013-08-12 21:44:00,85.0,0.0,29.90,NW,304,8.0,9.0,17,-99.99,,,-99.99,,2013-08-13 04:44:00,
2013-08-12 21:52:00,84.0,0.0,29.90,NW,307,8.0,10.0,18,-99.99,,,-99.99,,2013-08-13 04:52:00,
2013-08-12 22:00:00,83.0,0.0,29.91,WNW,301,8.0,9.0,18,-99.99,,,-99.99,,2013-08-13 05:00:00,
2013-08-12 22:08:00,83.0,0.0,29.91,NW,304,8.0,9.0,18,-99.99,,,-99.99,,2013-08-13 05:08:00,
2013-08-12 22:16:00,83.0,0.0,29.91,WNW,298,8.0,10.0,19,-99.99,,,-99.99,,2013-08-13 05:16:00,
2013-08-12 22:24:00,82.0,0.0,29.91,WNW,286,9.0,10.0,21,-99.99,,,-99.99,,2013-08-13 05:24:00,
2013-08-12 22:32:00,82.0,0.0,29.91,WNW,290,5.0,12.0,22,-99.99,,,-99.99,,2013-08-13 05:32:00,
2013-08-12 22:40:00,82.0,0.0,29.91,NW,308,8.0,12.0,18,-99.99,,,-99.99,,2013-08-13 05:40:00,
2013-08-12 22:48:00,81.0,0.0,29.91,NW,309,9.0,10.0,20,-99.99,,,-99.99,,2013-08-13 05:48:00,
2013-08-12 22:56:00,81.0,0.0,29.91,NW,307,9.0,10.0,20,-99.99,,,-99.99,,2013-08-13 05:56:00,
2013-08-12 23:04:00,81.0,0.0,29.91,NW,309,8.0,12.0,22,-99.99,,,-99.99,,2013-08-13 06:04:00,
2013-08-12 23:12:00,81.0,0.0,29.91,NW,311,9.0,12.0,22,-99.99,,,-99.99,,2013-08-13 06:12:00,
2013-08-12 23:20:00,81.0,0.0,29.91,WNW,287,6.0,12.0,20,-99.99,,,-99.99,,2013-08-13 06:20:00,
2013-08-12 23:28:00,81.0,0.0,29.91,NW,306,7.0,9.0,20,-99.99,,,-99.99,,2013-08-13 06:28:00,
2013-08-12 23:36:00,80.0,0.0,29.91,WNW,299,0.0,9.0,19,-99.99,,,-99.99,,2013-08-13 06:36:00,
2013-08-12 23:44:00,77.0,0.0,29.91,SW,226,1.0,5.0,22,-99.99,,,-99.99,,2013-08-13 06:44:00,
2013-08-12 23:52:00,80.0,0.0,29.91,WNW,297,6.0,9.0,18,-99.99,,,-99.99,,2013-08-13 06:52:00,